Orbital Elements at Epoch 2459000.5 (2020-May-31.0) TDB
Reference: JPL 15 (heliocentric ecliptic J2000)
Element | Value | Uncertainty (1-sigma) | Units |
e | .117609793863197 | 7.3722e-08 | |
a | 3.118364754683162 | 3.1624e-08 | au |
q | 2.751614518694617 | 2.4007e-07 | au |
i | 27.04297168686088 | 8.1016e-06 | deg |
node | 332.030486109752 | 1.0314e-05 | deg |
peri | 9.781651019595913 | 2.6431e-05 | deg |
M | 231.180287796042 | 2.515e-05 | deg |
tp | 2459720.228367607591 (2022-May-20.72836761) | 0.00014663 | TDB |
period | 2011.355311277988 5.51 | 3.0596e-05 8.377e-08 | d yr |
n | .1789837916659593 | 2.7226e-09 | deg/d |
Q | 3.485114990671708 | 3.5343e-08 | au |
|
| | Orbit Determination Parameters
Additional Information
|